Regional Weather Roundup
Issued by NWS Cleveland, OH

Home | Current Version | Previous Version | Graphics & Text | Print | Product List | Glossary On
Versions: 1 2 3 4 5 6 7 8 9 10 11 12 13 14 15 16 17 18 19 20 21 22 23 24 25 26 27 28 29 30 31 32 33 34 35 36 37 38 39 40 41 42 43 44 45 46 47 48 49 50
000
ASUS41 KCLE 160110
RWRCLE
OHIO REGIONAL WEATHER ROUNDUP
NATIONAL WEATHER SERVICE CLEVELAND, OH
900 PM EDT MON SEP 15 2014

NOTE: "FAIR" INDICATES FEW OR NO CLOUDS BELOW 12,000 FEET WITH NO
SIGNIFICANT WEATHER AND/OR OBSTRUCTIONS TO VISIBILITY.

OHZ001>008-015>018-024>027-034-035-043-044-160200-
   NORTHWEST OHIO

CITY           SKY/WX    TMP DP  RH WIND       PRES   REMARKS
DEFIANCE       CLOUDY    56  53  90 CALM      30.09F
FINDLAY        LGT RAIN  56  53  90 N8        30.09R FOG
TOLEDO EXPRESS LGT RAIN  53  52  96 NW5       30.09F
TOLEDO EXEC    LGT RAIN  55  52  89 W7        30.10S
LIMA           HVY RAIN  57  54  89 N9        30.10R FOG
$$

OHZ009>014-019>023-028>033-038-089-160200-
   NORTHEAST OHIO

CITY           SKY/WX    TMP DP  RH WIND       PRES   REMARKS
CLE-HOPKINS    LGT RAIN  58  55  90 NW5       30.10R
CLE-LAKEFRONT  LGT RAIN  60  54  80 NW5       30.07R
CUY CO. ARPT   LGT RAIN  59  59 100 CALM      30.09R FOG
LORAIN-ELYRIA  LGT RAIN  60  54  80 NW5       30.10R
ASHTABULA      LGT RAIN  57  56  96 NW3       30.09R FOG
AKRON-CANTON   CLOUDY    59  53  80 N3        30.06R
WOOSTER        LGT RAIN  59  54  83 N9        30.07R
MANSFIELD      CLOUDY    57  55  93 N7        30.09R
YOUNGSTOWN     CLOUDY    59  55  87 CALM      30.05R
$$

OHZ042-051>053-060>062-070>072-077>081-160200-
  SOUTHWEST OHIO

CITY           SKY/WX    TMP DP  RH WIND       PRES   REMARKS
CINC-COVINGTON CLOUDY    60  56  86 SW5       30.08S
CINC-LUNKEN    CLOUDY    61  57  87 W7        30.10R
HAMILTON       CLOUDY    60  58  92 VRB3      30.10R
DAYTON         CLOUDY    60  56  86 W5        30.09R
WRIGHT-PAT AFB CLOUDY    61  55  83 NW5       30.09R
DAYTON GENERAL CLOUDY    60  56  86 W3        30.08R
WILMINGTON     CLOUDY    60  53  77 W6        30.07F
$$

OHZ036-037-039>041-045>050-054>059-063>069-073>076-082>088-160200-
  CENTRAL AND SOUTHEAST OHIO

CITY           SKY/WX    TMP DP  RH WIND       PRES   REMARKS
COLUMBUS       CLOUDY    66  50  56 NW10      30.07R
OSU AIRPORT    CLOUDY    63  52  67 W7        30.07R
BOLTON FIELD   MOCLDY    60  54  80 NW3       30.07S
RICKENBACK AFB MOCLDY    62  53  73 NW6       30.06S
NEWARK         CLOUDY    58  52  80 W3        30.06R
MARION         CLOUDY    59  55  87 N8        30.09R
LANCASTER      MOCLDY    63  51  65 CALM      30.07R
ZANESVILLE     CLOUDY    60  51  72 NW3       30.06R
NEW PHILLY     CLOUDY    58  54  86 CALM      30.06R
$$


USA.gov is the U.S. government's official web portal to all federal, state and local government web resources and services.